Home > Weather > Hebron > Past weeks

Flag for Palestinian Territories Past Weather in Hebron, West Bank, Palestinian Territories — Yesterday and Last 2 Weeks

Now
75 °F

Sunny.


Feels Like: 77 °F
Forecast: 63 / 82 °F
Wind: 6 mph from North

Location: Ben Gurion International Airport

Current Time: May 31, 2016 at 9:13:03 PM

Latest Report: May 31, 2016 at 8:20 PM


Visibility: 10 mi

Pressure: 30.01 "Hg (27.08 "Hg at 894m altitude)

Humidity: 69%

Dew Point: 64 °F

Location of HebronLocation

Past Weather in Hebron — Graph

°F

Hebron Temperature Yesterday

Maximum temperature yesterday: 81 °F (at 12:50 PM)
Minimum temperature yesterday: 64 °F (at 4:20 AM)
Average temperature yesterday: 73 °F

High & Low Weather Summary for the Past Weeks

 TemperatureHumidityPressure
High99 °F (May 22, 1:20 PM)88% (May 17, 6:50 AM)30.04 "Hg (May 17, 6:50 AM)
Low63 °F (May 20, 4:50 AM)9% (May 22, 11:50 AM)29.71 "Hg (May 26, 10:20 AM)
Average73 °F60%29.92 "Hg
* Reported May 16 8:20 PM — May 31 8:20 PM, Hebron, Weather by CustomWeather, © 2016

Note: Actual official high and low records may vary slightly from our data, if they occured in-between our weather recording intervals... More about our weather records

Advertising

Hebron Weather History for the Previous 24 Hours

Scroll right to see more
 ConditionsComfort  
Time TempWeatherWind HumidityBarometerVisibility
8:20 PM
Tue, May 31
75 °FSunny.6 mph69%30.01 "Hg10 mi
7:20 PM77 °FSunny.9 mph65%30.01 "Hg10 mi
6:50 PM79 °FSunny.12 mph58%29.98 "Hg10 mi
6:20 PM79 °FSunny.12 mph58%29.98 "Hg10 mi
5:50 PM79 °FSunny.12 mph54%29.98 "Hg10 mi
5:20 PM81 °FSunny.10 mph51%29.98 "Hg10 mi
4:50 PM81 °FSunny.13 mph51%29.98 "Hg10 mi
3:50 PM82 °FSunny.13 mph48%29.98 "Hg10 mi
3:20 PM84 °FSunny.12 mph43%29.98 "Hg10 mi
2:50 PM84 °FSunny.12 mph43%29.98 "Hg10 mi
2:20 PM84 °FSunny.13 mph45%29.98 "Hg10 mi
1:50 PM84 °FSunny.12 mph43%29.98 "Hg10 mi
1:20 PM84 °FSunny.12 mph40%29.98 "Hg10 mi
12:50 PM82 °FSunny.13 mph42%30.01 "Hg10 mi
12:20 PM84 °FSunny.12 mph40%30.01 "Hg10 mi
11:50 AM84 °FSunny.10 mph43%30.01 "Hg10 mi
11:20 AM84 °FSunny.7 mph43%30.01 "Hg10 mi
10:50 AM84 °FSunny.3 mph33%30.01 "Hg10 mi
10:20 AM81 °FSunny.3 mph37%30.01 "Hg10 mi
9:50 AM79 °FSunny.3 mph45%30.01 "Hg10 mi
9:20 AM79 °FSunny.2 mph58%30.04 "Hg10 mi
8:50 AM77 °FSunny.2 mph54%30.04 "Hg10 mi
8:20 AM75 °FSunny.2 mph61%30.01 "Hg10 mi
7:50 AM73 °FSunny.2 mph50%30.01 "Hg10 mi
7:20 AM70 °FSunny.2 mph53%30.01 "Hg10 mi
6:50 AM66 °FSunny.5 mph60%30.01 "Hg10 mi
6:20 AM64 °FClear.3 mph68%30.01 "Hg10 mi
5:50 AM64 °FClear.5 mph68%30.01 "Hg10 mi
5:20 AM64 °FClear.6 mph68%30.01 "Hg10 mi
4:50 AM64 °FClear.3 mph73%30.01 "Hg10 mi
4:20 AM66 °FClear.5 mph73%30.01 "Hg10 mi
3:50 AM66 °FClear.3 mph78%30.01 "Hg10 mi
3:20 AM66 °FClear.2 mph78%29.98 "Hg10 mi
2:50 AM68 °FClear.3 mph73%29.98 "Hg10 mi
2:20 AM66 °FClear.2 mph78%29.98 "Hg10 mi
1:50 AM68 °FClear.2 mph78%29.98 "Hg10 mi
1:20 AM68 °FClear.1 mph78%29.98 "Hg10 mi
12:50 AM68 °FClear.3 mph78%30.01 "Hg10 mi
12:20 AM70 °FClear.3 mph78%30.01 "Hg10 mi
11:50 PM
Mon, May 30
72 °FClear.5 mph73%30.01 "Hg10 mi
11:20 PM72 °FClear.5 mph73%30.01 "Hg10 mi
10:50 PM72 °FClear.5 mph73%30.01 "Hg10 mi
10:20 PM72 °FClear.3 mph78%30.01 "Hg10 mi
9:50 PM72 °FClear.6 mph78%30.01 "Hg10 mi
9:20 PM72 °FClear.6 mph78%30.01 "Hg10 mi
Weather by CustomWeather, © 2016

See weather overviewHow to use our weather pages